SCP
2 2 3 3 2 2 2 3 3 2 2 2 2 2 2 2 2 3 3 3 3 3 3 2 2 2 2 2 2 2 2 2 3 3 3 2 2 2 2 2 3 3 3
3 3 4 4 3 3 3 3 3 3 3 2 2 2 2 2 2 3 3 3 3 3 3 3 2 2 2 2 2 2 2 3 3 3 3 2 2 2 2 2 2 3 3
4 5 5 5 4 4 3 3 3 3 3 2 2 3 3 3 2 2 3 3 3 3 3 3 3 2 2 2 2 2 3 3 3 3 2 2 2 2 2 2 2 2 3
4 5 5 5 4 4 4 4 3 3 3 3 3 3 3 3 3 3 3 3 3 3 3 3 4 3 2 2 2 2 2 3 3 3 3 2 2 2 2 2 2 2 2
4 4 4 4 4 3 3 4 4 3 3 3 2 2 3 4 4 4 3 3 3 3 3 3 4 3 3 2 2 1 2 2 3 3 3 3 3 2 2 2 2 2 2
3 3 4 4 3 3 3 3 3 3 3 3 2 2 2 3 4 4 4 4 4 3 3 3 4 4 3 3 2 2 2 2 3 4 4 3 3 3 3 3 2 2 2
3 3 4 4 3 3 3 2 2 2 2 2 2 2 2 2 2 3 4 4 4 3 3 3 3 4 4 3 3 2 2 2 3 4 4 3 3 3 3 3 3 2 2
3 3 3 4 4 3 3 2 2 2 1 2 2 2 2 1 2 2 3 4 4 3 3 2 2 3 3 3 3 2 2 2 3 3 3 3 2 3 3 3 3 2 2
3 3 3 3 4 3 2 2 2 1 1 1 1 2 2 1 1 2 3 3 4 3 3 2 2 2 3 3 3 3 2 2 2 2 2 2 2 2 2 2 2 2 2
3 3 3 3 3 3 2 1 1 1 1 1 1 1 1 1 2 2 2 3 3 4 4 3 3 3 3 3 3 3 2 2 2 2 2 2 2 2 2 2 2 2 2
2 2 2 2 2 2 2 1 1 1 1 1 1 2 2 2 2 2 2 3 3 3 3 4 4 4 4 4 3 3 2 2 2 2 2 2 2 2 2 2 2 2 2
2 2 2 2 2 2 2 1 1 1 1 1 1 2 2 2 2 2 3 3 3 3 4 4 4 4 4 4 3 2 2 1 1 1 2 2 2 2 2 2 2 2 2
2 2 1 1 1 1 1 1 1 1 1 1 1 2 2 2 2 3 3 2 3 3 4 4 3 4 4 4 3 2 1 1 1 1 1 1 1 2 2 2 2 2 2
1 1 1 2 2 1 1 1 1 1 2 2 2 1 1 2 2 2 2 2 3 3 3 3 3 3 3 3 3 2 1 1 0 0 0 1 1 1 2 2 2 2 2
1 2 2 2 2 2 2 1 1 1 2 2 2 2 1 1 1 2 2 2 2 2 2 1 2 2 2 2 2 2 1 1 0 0 0 0 0 1 1 2 2 1 1
2 2 2 3 3 3 2 1 1 1 2 2 2 2 2 1 1 1 1 2 2 2 1 1 1 2 2 2 1 2 1 1 0 0 0 0 0 0 1 1 1 1 1
2 2 2 2 2 2 2 2 1 1 2 2 2 2 1 1 1 1 1 1 1 1 1 1 1 1 1 1 1 1 1 1 1 0 0 0 0 0 0 0 0 0 0
1 1 1 1 1 1 2 2 1 1 1 1 1 1 1 1 1 1 1 1 1 1 1 1 1 1 1 1 1 1 1 1 1 1 0 0 0 0 0 0 0 0 0
0 0 1 1 1 1 1 1 1 1 1 1 1 1 1 1 1 1 1 1 1 1 1 1 1 1 1 1 1 1 1 2 2 1 0 0 0 0 0 0 0 0 0
0 0 0 0 0 0 0 1 1 1 1 1 1 1 1 1 1 1 1 1 1 1 1 1 1 1 1 1 1 1 1 2 2 1 1 0 0 0 0 0 0 0 0
0 0 0 0 0 0 0 0 0 1 1 1 1 1 1 1 0 0 1 1 1 1 1 1 1 1 1 1 1 1 1 1 2 1 1 0 0 0 0 0 0 0 0
1 1 0 0 0 0 0 0 0 1 1 1 1 1 1 0 0 0 0 0 0 1 1 1 1 1 1 1 1 1 1 1 1 1 1 1 1 1 1 0 0 0 0
2 1 1 0 0 0 0 0 0 0 1 1 0 1 0 0 0 0 0 0 0 0 0 1 1 1 1 1 1 1 1 1 2 2 1 1 1 1 1 0 0 0 0
1 1 1 0 0 0 0 0 0 0 0 0 0 0 0 0 0 0 0 0 1 0 0 0 1 1 1 1 1 1 1 2 2 2 2 1 1 1 1 1 0 0 0
0 0 1 1 0 0 0 0 0 0 0 0 0 0 0 0 0 0 0 1 1 1 0 0 0 0 0 0 1 1 1 2 2 3 2 1 1 1 1 1 0 0 0
0 0 0 0 1 0 0 0 0 0 0 0 0 0 0 0 0 0 0 1 1 1 1 0 0 0 0 0 0 1 1 2 2 2 2 1 1 1 1 1 1 0 0
Wind_Speed
2 1 2 2 4 3 4 4 4 4 5 6 6 6 6 6 6 5 4 7 8 8 9 9 9 9 9 8 8 8 8 8 8 9 10 10 10 10 9 9 10 10 11
2 2 3 2 3 3 3 4 4 4 5 4 6 6 6 6 6 6 5 6 9 9 10 10 10 9 9 9 9 9 10 9 9 9 10 10 10 10 10 9 9 9 9
2 3 3 3 3 3 3 4 4 4 5 5 6 6 6 6 5 6 6 5 6 10 11 11 10 10 10 10 9 10 10 10 10 10 10 11 11 10 10 10 9 9 9
3 3 3 3 3 3 3 3 4 4 4 5 5 5 5 5 6 7 6 6 5 5 9 11 10 10 10 10 10 10 10 10 11 11 11 10 10 11 11 11 11 10 10
3 4 3 3 4 3 3 4 3 4 4 5 5 5 5 5 5 6 6 6 6 6 6 8 11 10 10 11 11 11 10 9 9 10 11 10 10 10 10 11 11 11 11
3 4 4 3 4 3 3 3 4 4 5 5 6 4 4 4 5 5 6 6 6 7 7 6 7 8 11 10 10 10 10 10 9 10 11 11 10 10 10 10 11 11 11
3 4 4 4 4 4 4 4 5 5 5 4 5 4 4 5 5 5 5 5 6 7 7 7 6 5 5 11 10 9 9 10 9 9 10 10 10 9 10 10 11 11 11
4 4 4 5 4 4 4 4 5 5 4 3 4 4 4 4 5 5 5 5 6 5 6 7 6 5 5 4 6 9 8 8 9 9 10 9 9 9 10 10 11 12 11
4 4 4 4 4 4 3 4 5 5 5 4 4 5 4 4 2 3 4 4 5 4 5 5 7 6 6 5 4 7 7 7 9 9 10 9 9 10 10 10 11 12 12
4 3 3 3 3 3 3 4 3 4 5 4 3 4 5 4 4 3 4 3 4 5 4 4 5 5 5 5 4 3 5 5 7 9 9 9 10 10 10 10 11 11 12
3 3 3 2 3 3 3 4 4 5 4 5 4 4 4 4 6 5 4 3 3 3 3 4 3 4 4 5 4 4 4 5 6 8 8 9 9 10 11 11 11 11 12
2 2 3 2 3 3 3 4 4 4 4 5 5 4 4 4 4 4 5 4 4 3 3 3 4 4 4 4 4 2 3 5 5 6 7 8 9 10 10 11 11 11 11
2 2 3 2 2 3 3 3 3 4 4 4 4 4 4 4 4 4 5 5 5 3 3 3 3 3 3 3 2 2 4 5 5 6 7 8 9 10 11 11 11 10 10
2 2 3 3 2 2 3 2 3 3 2 3 4 4 4 4 3 4 4 4 5 4 3 3 2 3 2 2 1 3 4 5 5 7 7 8 9 10 10 10 10 10 9
2 2 3 2 3 2 2 3 2 2 2 2 2 3 4 3 3 3 4 4 5 5 4 3 2 2 2 2 1 3 3 3 4 5 6 7 8 9 9 9 8 8 8
3 3 3 2 2 2 2 3 2 2 2 2 2 2 3 3 2 3 4 4 5 5 4 2 2 1 1 2 2 3 3 3 4 5 6 6 6 7 7 7 7 8 8
3 3 3 2 2 2 2 2 3 3 2 2 2 2 2 3 3 3 3 3 4 4 4 3 2 1 1 3 2 3 4 3 3 6 6 6 6 6 6 6 6 6 7
3 3 2 2 2 2 2 2 3 3 2 2 3 3 3 2 3 3 3 3 3 3 4 4 3 2 2 3 3 4 3 3 3 4 6 6 6 6 6 6 6 6 5
3 3 2 2 2 2 2 3 3 3 3 3 3 3 3 3 3 3 4 3 3 2 3 3 3 2 3 2 3 4 4 3 4 4 6 7 6 7 7 7 6 6 5
2 2 2 3 3 3 3 4 4 3 3 3 3 3 3 3 3 3 3 3 3 3 3 3 3 2 2 2 3 3 3 3 3 2 2 3 5 7 8 8 7 7 6
2 2 2 3 3 3 4 5 5 4 3 3 3 3 2 2 3 3 3 3 3 3 3 3 3 3 2 2 2 3 3 2 2 2 2 2 3 4 5 6 7 6 6
3 2 3 3 3 4 5 6 6 5 4 4 3 3 2 1 1 3 3 3 3 3 3 3 3 3 3 2 2 3 3 3 3 1 2 2 2 2 2 3 5 6 6
2 2 3 3 3 4 5 6 7 5 4 4 4 4 4 3 2 2 3 5 4 5 4 4 4 4 3 3 3 3 3 3 3 2 3 3 2 2 2 1 5 7 7
3 3 3 4 4 4 4 5 7 4 3 3 3 3 3 4 3 4 3 2 2 2 3 4 4 4 3 3 4 4 4 4 4 2 3 3 2 2 2 1 6 7 7
2 3 3 4 4 4 4 5 7 4 2 3 3 3 3 3 4 4 3 2 2 1 2 3 3 3 2 3 5 4 4 4 3 1 1 2 2 2 2 2 3 7 6
2 3 3 3 4 4 4 4 6 4 3 3 2 1 3 3 4 3 3 2 2 1 1 1 2 4 4 3 4 4 4 3 3 2 1 2 2 2 2 2 1 2 4
Wind_Direction
278 285 282 276 276 276 259 261 266 263 258 250 250 248 247 246 238 227 201 189 204 220 229 232 232 230 228 223 218 217 220 220 217 214 213 211 213 213 211 212 211 212 212
282 278 264 266 271 275 285 281 275 266 260 259 254 250 248 242 235 230 224 197 201 215 228 234 234 232 228 223 218 218 220 222 221 217 212 211 210 210 208 209 212 213 212
274 271 271 265 278 282 270 266 266 261 256 251 248 245 244 242 235 232 232 230 212 206 214 226 230 229 229 228 225 222 223 221 221 219 215 213 211 210 207 206 212 215 215
263 265 267 269 278 274 267 259 261 262 259 256 252 248 241 234 233 231 228 226 230 225 207 209 220 224 229 233 232 227 226 226 224 220 216 216 214 213 212 211 214 219 219
267 263 264 268 264 265 268 268 268 271 263 263 255 246 245 241 234 230 229 229 226 231 230 197 205 216 225 233 235 234 231 228 226 220 218 219 218 218 216 215 216 219 221
275 274 262 257 263 264 268 275 275 272 268 266 265 259 252 245 240 232 229 226 225 227 225 227 212 207 213 226 232 234 233 230 230 227 223 222 220 219 220 221 221 222 223
278 271 275 262 255 259 270 277 273 264 262 266 265 258 245 232 227 228 229 234 227 225 221 217 225 230 211 210 217 228 232 236 234 230 227 224 223 222 223 225 226 223 224
279 272 274 266 261 260 256 267 274 275 270 260 265 262 251 229 216 220 222 226 232 228 220 210 214 217 241 230 194 210 225 233 232 230 231 229 227 229 231 231 229 226 224
286 282 274 275 273 266 268 267 268 269 274 266 260 266 270 266 260 219 228 227 230 231 224 213 213 216 226 237 225 199 213 227 234 232 231 232 233 233 236 236 231 227 225
297 287 279 275 276 277 270 266 275 274 270 267 256 261 278 295 276 252 228 216 223 229 235 228 219 212 216 229 222 213 200 219 234 235 230 233 235 237 237 236 234 229 227
302 297 294 285 275 273 279 281 281 276 271 273 267 260 260 252 255 263 263 253 234 227 228 226 224 224 220 227 226 213 192 215 230 234 231 232 238 239 239 238 236 233 230
309 324 315 306 286 291 284 279 273 264 274 278 274 267 260 255 257 255 258 256 256 243 231 233 231 222 225 229 222 160 201 219 227 231 231 231 234 239 241 239 236 236 234
326 347 330 314 307 297 288 288 278 278 271 271 270 274 271 265 266 263 263 265 267 254 227 223 226 222 229 232 211 170 206 216 229 236 235 233 232 235 240 240 237 238 238
334 329 312 311 306 300 302 301 289 285 279 276 274 278 276 274 271 268 266 270 269 258 236 231 219 219 237 244 174 218 218 197 216 233 235 234 234 233 235 238 238 238 237
320 325 320 321 317 315 312 296 313 304 304 288 286 273 272 276 272 270 267 265 267 268 254 222 227 212 240 251 201 243 251 177 200 216 226 232 234 232 231 231 235 234 232
332 310 314 316 311 300 297 298 314 329 303 303 301 308 295 288 285 265 261 259 258 263 269 273 255 265 272 265 194 244 246 197 204 207 213 221 227 228 229 228 230 228 225
314 317 309 307 300 304 313 313 313 303 295 302 295 290 287 291 288 279 269 261 256 254 253 262 266 253 262 279 266 257 251 245 215 196 202 209 216 218 221 228 229 229 226
318 325 316 317 309 312 316 305 298 300 296 290 291 290 284 279 284 285 281 271 265 262 253 256 263 253 248 255 261 259 258 249 247 181 186 198 206 210 214 218 219 219 224
320 316 318 330 332 324 319 312 306 302 300 292 281 283 287 289 283 286 279 274 266 252 253 254 255 256 253 244 250 250 254 259 245 189 183 191 202 206 210 210 209 207 211
315 314 324 333 334 333 335 333 332 323 316 313 306 294 293 294 286 288 274 263 257 253 244 254 261 257 250 246 250 254 241 240 249 237 199 199 191 198 202 204 201 201 204
334 346 349 350 344 339 351 343 332 329 320 311 309 302 306 319 322 308 304 292 262 251 245 250 259 262 258 259 254 254 250 249 245 250 246 223 201 210 199 195 192 193 200
358 4 354 349 349 356 14 349 327 326 325 325 327 326 312 239 260 257 276 296 286 262 264 267 265 267 273 273 281 268 265 258 261 242 258 262 238 232 222 210 171 175 192
4 353 345 346 354 13 9 342 331 321 330 342 339 330 327 348 303 296 230 223 233 241 252 272 277 281 277 279 274 261 257 261 269 256 250 258 240 238 237 187 155 176 192
352 341 335 342 343 13 15 343 326 309 323 332 329 332 332 326 337 317 281 255 244 232 238 243 269 282 289 292 272 262 254 250 249 240 242 260 254 256 253 214 163 177 191
336 328 335 339 340 359 11 337 319 311 332 332 330 343 332 319 345 317 287 279 273 246 189 195 236 262 298 288 279 262 251 249 250 233 256 273 272 274 266 237 170 174 189
322 322 342 340 341 347 17 349 321 314 332 324 325 357 25 342 343 322 281 277 282 297 302 202 209 223 231 227 232 257 276 278 281 288 317 290 284 285 278 258 236 189 187